Home   Weather   Monthey   Past weeks

Flag for Switzerland Past Weather in Monthey, Valais, Switzerland — Yesterday and Last 2 Weeks

Now
67 °F

Mild.


Feels Like: 67 °F
Forecast: 55 / 67 °F
Wind: 9 mph from Northeast

Location: Aigle

Current Time: Jul 24, 2017 at 5:03:43 pm

Latest Report: Jul 24, 2017 at 4:00 pm


Visibility: N/A

Pressure: 29.91 "Hg

Humidity: 53%

Dew Point: 49 °F

Location of MontheyLocation

Past Weather in Monthey — Graph

°F

Monthey Temperature Yesterday

Maximum temperature yesterday: 75 °F (at 6:00 pm)
Minimum temperature yesterday: 60 °F (at 6:00 am)
Average temperature yesterday: 68 °F

High & Low Weather Summary for the Past Weeks

 TemperatureHumidityPressure
High84 °F (Jul 19, 3:00 pm)100% (Jul 11, 5:00 am)30.27 "Hg (Jul 11, 5:00 am)
Low52 °F (Jul 16, 6:00 am)37% (Jul 15, 5:00 pm)29.81 "Hg (Jul 21, 3:00 pm)
Average69 °F71%30.00 "Hg
* Reported Jul 9 3:00 pm — Jul 24 3:00 pm, Monthey. Weather by CustomWeather, © 2017

Note: Actual official high and low records may vary slightly from our data, if they occured in-between our weather recording intervals... More about our weather records

Advertising

Monthey Weather History for the Previous 24 Hours

Scroll right to see more
 ConditionsComfort  
Time TempWeatherWind HumidityBarometerVisibility
3:00 pm
Mon, Jul 24
65 °FMild.16 mph65%29.90 "HgN/A
2:00 pm64 °FRain. Overcast.21 mph75%29.89 "Hg6 mi
1:00 pm61 °FCool.18 mph90%29.88 "HgN/A
12:00 pm65 °FMild.3 mph85%29.86 "HgN/A
11:00 am64 °FLight rain. Overcast.2 mph86%29.87 "Hg12 mi
10:00 am64 °FMild.3 mph91%29.87 "HgN/A
9:00 am64 °FMild.2 mph92%29.87 "HgN/A
8:00 am62 °FLight rain. Overcast.5 mph96%29.89 "Hg11 mi
7:00 am61 °FCool.5 mph96%29.91 "HgN/A
6:00 am61 °FCool.3 mph97%29.91 "HgN/A
5:00 am61 °FHeavy rain. Overcast.3 mph92%29.92 "Hg4 mi
4:00 am61 °FCool.1 mph94%29.91 "HgN/A
3:00 am62 °FCool.1 mph87%29.92 "HgN/A
2:00 am60 °FCool.2 mph86%29.94 "HgN/A
1:00 am61 °FCool.1 mph89%29.95 "HgN/A
12:00 am62 °FCool.No wind89%29.97 "HgN/A
11:00 pm
Sun, Jul 23
64 °FMild.2 mph76%29.98 "HgN/A
10:00 pm66 °FMild.2 mph70%29.98 "HgN/A
9:00 pm70 °FMild.6 mph57%29.97 "HgN/A
8:00 pm73 °FPartly sunny.9 mph46%29.96 "Hg16 mi
7:00 pm74 °FMild.14 mph46%29.96 "HgN/A
6:00 pm75 °FMild.12 mph52%29.96 "HgN/A
5:00 pm75 °FScattered clouds.9 mph55%29.98 "Hg16 mi
Weather by CustomWeather, © 2017

See weather overviewHow to use our weather pages